{"data":{"norad_id":62262,"intl_designator":"2024-231V","name":"STARLINK-32632","alt_names":[],"object_type":"PAYLOAD","status":"ACTIVE","operator":null,"country":"US","launch_date":"2024-12-05","launch_site_code":"AFWTR","launch_vehicle":null,"mission":null,"orbit_class":"UNKNOWN","rcs_meters":null,"size_class":null,"mass_kg":null,"dimensions":null,"purposes":["comms"],"wikipedia_slug":null,"has_3d_model":false,"image_url":null,"decayed_at":null,"tle_current":{"epoch":"2026-05-25T05:12:25.044192Z","epoch_age_seconds":52986,"freshness":"FRESH","line1":"1 62262U 24231V   26145.21695653  .00016737  00000+0  57577-3 0  9992","line2":"2 62262  53.1604 224.2655 0001362  82.7530 277.3625 15.30209227 83488","mean_motion":15.30209227,"eccentricity":0.0001362,"inclination_deg":53.1604,"raan_deg":224.2655,"arg_perigee_deg":82.753,"mean_anomaly_deg":277.3625,"bstar":0.00057577,"rev_number":8348,"period_min":94.10477826115,"perigee_km":474.2540965994,"apogee_km":476.12094219848,"semimajor_km":6853.3245193989,"source":"CELESTRAK","updated_at":"2026-05-25T13:38:19.640194Z"}}}